FW0409 Weather Reports


time (UTC)temp
C
wind
direction
speed
KPH
gust
KPH
rain 1hr
cm
rain 24hr
cm
rain mn
cm
humidity
%
barometer
mb
20260505122044 12 177 1.6 6.4 0.00 0.00 0.00 82 1015.0
20260505121544 12 171 3.2 8.0 0.00 0.00 0.00 82 1015.0
20260505121044 12 182 1.6 8.0 0.00 0.00 0.00 82 1015.0
20260505120544 12 182 3.2 8.0 0.00 0.00 0.00 82 1015.0
20260505120043 12 174 3.2 11.3 0.00 0.00 0.00 82 1015.0
20260505115542 12 177 4.8 11.3 0.00 0.00 0.00 82 1014.8
20260505115042 12 139 1.6 8.0 0.00 0.00 0.00 82 1014.8
20260505114542 12 163 4.8 8.0 0.00 0.00 0.00 82 1014.8
20260505114041 12 168 4.8 8.0 0.00 0.00 0.00 82 1014.8
20260505113540 12 186 4.8 8.0 0.00 0.00 0.00 82 1014.7
20260505113048 12 157 1.6 4.8 0.00 0.00 0.00 82 1014.7
20260505112540 12 157 1.6 4.8 0.00 0.00 0.00 82 1014.8
20260505112042 12 157 0.0 8.0 0.00 0.00 0.00 82 1014.7
20260505111539 12 157 3.2 8.0 0.00 0.00 0.00 82 1014.7
20260505111039 12 156 3.2 9.7 0.00 0.00 0.00 82 1014.8
20260505110538 12 152 1.6 9.7 0.00 0.00 0.00 82 1014.6
20260505102032 13 176 1.6 8.0 0.00 0.00 0.00 81 1014.2
20260505101549 13 173 1.6 8.0 0.00 0.00 0.00 81 1014.3
20260505101034 13 170 3.2 6.4 0.00 0.00 0.00 81 1014.4
20260505100530 13 171 3.2 6.4 0.00 0.00 0.00 81 1014.4
20260505100053 13 171 0.0 4.8 0.00 0.00 0.00 81 1014.4
20260505095531 13 171 3.2 6.4 0.00 0.00 0.00 81 1014.3
20260505095028 13 171 1.6 6.4 0.00 0.00 0.00 81 1014.2
20260505094531 13 171 3.2 11.3 0.00 0.00 0.00 80 1014.1
20260505094028 13 169 3.2 11.3 0.00 0.00 0.00 80 1014.2
20260505093527 13 173 3.2 9.7 0.00 0.00 0.00 80 1014.2
20260505093026 13 162 3.2 9.7 0.00 0.00 0.00 80 1014.2
20260505092526 13 167 6.4 11.3 0.00 0.00 0.00 80 1014.1
20260505092024 13 171 1.6 6.4 0.00 0.00 0.00 79 1014.1
20260505091524 13 171 1.6 6.4 0.00 0.00 0.00 79 1014.0
20260505091023 13 169 0.0 6.4 0.00 0.00 0.00 79 1013.9
20260505090522 13 169 1.6 9.7 0.00 0.00 0.00 78 1013.8
20260505090021 13 159 4.8 8.0 0.00 0.00 0.00 79 1014.0
20260505085523 13 166 4.8 9.7 0.00 0.00 0.00 78 1013.8
20260505085020 13 145 3.2 6.4 0.00 0.00 0.00 78 1013.7
20260505084520 14 168 1.6 9.7 0.00 0.00 0.00 78 1013.7
20260505084020 14 167 4.8 9.7 0.00 0.00 0.00 78 1013.8
20260505083521 14 171 0.0 6.4 0.00 0.00 0.00 78 1013.7
20260505083023 14 171 1.6 8.0 0.00 0.00 0.00 77 1013.7
20260505082518 14 171 1.6 11.3 0.00 0.00 0.00 78 1013.6
20260505082018 14 170 3.2 6.4 0.00 0.00 0.00 78 1013.6
20260505081517 14 168 0.0 4.8 0.00 0.00 0.00 78 1013.6
20260505081017 14 168 1.6 9.7 0.00 0.00 0.00 78 1013.5
20260505080517 14 168 3.2 9.7 0.00 0.00 0.00 78 1013.6
20260505080019 14 165 1.6 9.7 0.00 0.00 0.00 78 1013.5
20260505075515 14 165 4.8 9.7 0.00 0.00 0.00 78 1013.5
20260505075015 14 182 3.2 6.4 0.00 0.00 0.00 78 1013.5
20260505074515 14 182 1.6 6.4 0.00 0.00 0.00 78 1013.4
20260505074014 14 184 0.0 6.4 0.00 0.00 0.00 77 1013.4
20260505073513 14 184 3.2 6.4 0.00 0.00 0.00 77 1013.3
20260505073030 14 186 1.6 6.4 0.00 0.00 0.00 77 1013.1
20260505072511 15 198 0.0 3.2 0.00 0.00 0.00 77 1013.1
20260505072010 15 198 0.0 3.2 0.00 0.00 0.00 76 1012.9
20260505071509 15 198 0.0 3.2 0.00 0.00 0.00 76 1012.9
20260505071010 15 198 0.0 8.0 0.00 0.00 0.00 76 1013.0
20260505070512 15 198 1.6 9.7 0.00 0.00 0.00 75 1012.9
20260505070012 15 165 4.8 11.3 0.00 0.00 0.00 75 1012.7
20260505065507 15 161 3.2 9.7 0.00 0.00 0.00 75 1012.7
20260505065006 16 165 4.8 9.7 0.00 0.00 0.00 75 1012.7
20260505064509 16 169 3.2 9.7 0.00 0.00 0.00 74 1012.6
20260505064006 16 135 3.2 9.7 0.00 0.00 0.00 73 1012.4
20260505063506 16 177 1.6 8.0 0.00 0.00 0.00 74 1012.4
20260505063006 16 179 1.6 8.0 0.00 0.00 0.00 73 1012.3
20260505062506 16 218 0.0 4.8 0.00 0.00 0.00 72 1012.2
20260505062010 17 218 0.0 8.0 0.00 0.00 0.00 72 1012.2
20260505061518 17 229 3.2 8.0 0.00 0.00 0.00 72 1012.1
20260505061005 17 262 0.0 4.8 0.00 0.00 0.00 72 1012.1
20260505060506 17 263 0.0 4.8 0.00 0.00 0.00 71 1012.0
20260505060005 17 263 0.0 4.8 0.00 0.00 0.00 71 1011.9
20260505055504 17 263 0.0 3.2 0.00 0.00 0.00 71 1011.9
20260505055007 17 264 0.0 6.4 0.00 0.00 0.00 70 1011.8
20260505054505 18 264 1.6 6.4 0.00 0.00 0.00 70 1011.7
20260505054005 18 254 0.0 8.0 0.00 0.00 0.00 70 1011.8
20260505053506 18 256 3.2 8.0 0.00 0.00 0.00 69 1011.9
20260505053007 18 248 3.2 11.3 0.00 0.00 0.00 69 1011.9
20260505052504 18 245 1.6 11.3 0.00 0.00 0.00 69 1011.8
20260505052009 18 274 1.6 6.4 0.00 0.00 0.00 69 1011.7
20260505051513 18 173 1.6 9.7 0.00 0.00 0.00 72 1011.8
20260505051006 18 171 6.4 9.7 0.00 0.00 0.00 73 1011.7
20260505050503 18 177 1.6 8.0 0.00 0.00 0.00 74 1011.6
20260505041505 18 162 0.0 1.6 0.00 0.00 0.00 75 1011.1
20260505041002 18 162 0.0 4.8 0.00 0.00 0.00 75 1011.0
20260505040501 18 162 1.6 4.8 0.00 0.00 0.00 75 1010.8
20260505040001 18 162 1.6 4.8 0.00 0.00 0.00 74 1010.7
20260505035500 19 162 1.6 4.8 0.00 0.00 0.00 74 1010.5
20260505035001 19 162 1.6 8.0 0.00 0.00 0.00 74 1010.5
20260505034500 19 162 1.6 8.0 0.00 0.00 0.00 73 1010.6
20260505034100 19 163 3.2 8.0 0.00 0.00 0.00 73 1010.4
20260505033601 20 165 1.6 4.8 0.00 0.00 0.00 72 1010.5
20260505033104 20 165 1.6 4.8 0.00 0.00 0.00 71 1010.4
20260505032601 20 165 1.6 4.8 0.00 0.00 0.00 71 1010.3
20260505032059 20 166 3.2 8.0 0.00 0.00 0.00 70 1010.1
20260505031600 20 169 3.2 8.0 0.00 0.00 0.00 70 1010.2
20260505031100 20 173 4.8 9.7 0.00 0.00 0.00 70 1010.2
20260505030558 20 163 4.8 14.5 0.00 0.00 0.00 69 1010.2
20260505030058 20 167 8.0 14.5 0.00 0.00 0.00 68 1010.0
20260505025558 21 171 6.4 12.9 0.00 0.00 0.00 68 1010.1
20260505025057 21 157 4.8 11.3 0.00 0.00 0.00 68 1010.0
20260505024558 21 169 4.8 9.7 0.00 0.00 0.00 68 1009.9
20260505024057 21 166 4.8 8.0 0.00 0.00 0.00 67 1009.8
20260505023557 21 172 4.8 8.0 0.00 0.00 0.00 67 1009.7
20260505023103 21 159 3.2 12.9 0.00 0.00 0.00 66 1009.8
20260505022557 21 162 6.4 12.9 0.00 0.00 0.00 66 1009.8
20260505022057 21 159 4.8 11.3 0.00 0.00 0.00 65 1009.7
20260505021557 21 172 3.2 12.9 0.00 0.00 0.00 66 1009.7
20260505021056 22 169 6.4 11.3 0.00 0.00 0.00 65 1009.6
20260505020555 22 173 4.8 11.3 0.00 0.00 0.00 64 1009.7
20260505020057 22 180 3.2 8.0 0.00 0.00 0.00 64 1009.7
20260505015555 22 167 4.8 14.5 0.00 0.00 0.00 64 1009.7
20260505015055 22 167 6.4 14.5 0.00 0.00 0.00 63 1009.7
20260505014600 22 175 4.8 12.9 0.00 0.00 0.00 63 1009.9
20260505014055 22 172 4.8 12.9 0.00 0.00 0.00 63 1009.8
20260505013554 22 178 3.2 12.9 0.00 0.00 0.00 63 1009.9
20260505013057 22 172 3.2 12.9 0.00 0.00 0.00 63 1010.0
20260505012555 22 170 3.2 16.1 0.00 0.00 0.00 63 1010.0
20260505012054 22 170 4.8 9.7 0.00 0.00 0.00 62 1010.0
20260505011554 22 165 0.0 8.0 0.00 0.00 0.00 62 1010.1
20260505011053 22 162 3.2 12.9 0.00 0.00 0.00 61 1010.2
20260505010554 22 183 4.8 12.9 0.00 0.00 0.00 61 1010.2
20260505010112 22 172 8.0 14.5 0.00 0.00 0.00 62 1010.1
20260505005553 22 178 4.8 16.1 0.00 0.00 0.00 62 1010.1
20260505005053 22 192 1.6 14.5 0.00 0.00 0.00 60 1010.2
20260505004553 22 180 6.4 14.5 0.00 0.00 0.00 61 1010.2
20260505004052 22 194 3.2 14.5 0.00 0.00 0.00 61 1010.2
20260505003554 22 166 4.8 12.9 0.00 0.00 0.00 61 1010.0
20260505003055 22 134 6.4 12.9 0.00 0.00 0.00 61 1010.3
20260505002552 22 190 1.6 8.0 0.00 0.00 0.00 60 1010.2
20260505002052 22 192 3.2 16.1 0.00 0.00 0.00 60 1010.2
20260505001552 22 159 9.7 17.7 0.00 0.00 0.00 60 1010.2
20260505001055 22 153 9.7 17.7 0.00 0.00 0.00 59 1010.3
20260505000550 22 183 6.4 12.9 0.00 0.00 0.00 60 1010.1
20260505000051 22 248 1.6 11.3 0.00 0.00 0.00 60 1010.2
20260504235551 22 174 6.4 11.3 0.00 0.00 0.00 59 1010.3
20260504235050 22 184 1.6 16.1 0.00 0.00 0.00 59 1010.2
20260504234550 22 186 6.4 16.1 0.00 0.00 0.00 59 1010.3
20260504234050 22 238 3.2 9.7 0.00 0.00 0.00 60 1010.3
20260504233554 22 192 3.2 11.3 0.00 0.00 0.00 59 1010.3
20260504233052 22 176 3.2 9.7 0.00 0.00 0.00 60 1010.3
20260504232550 22 182 4.8 9.7 0.00 0.00 0.00 60 1010.4
20260504232049 22 182 1.6 12.9 0.00 0.00 0.00 59 1010.4
20260504231553 22 166 6.4 17.7 0.00 0.00 0.00 60 1010.5
20260504231049 22 180 6.4 17.7 0.00 0.00 0.00 60 1010.5
20260504230551 22 183 1.6 11.3 0.00 0.00 0.00 61 1010.5
20260504230050 22 304 4.8 16.1 0.00 0.00 0.00 60 1010.6
20260504225549 22 160 9.7 16.1 0.00 0.00 0.00 59 1010.7
20260504225048 22 135 3.2 8.0 0.00 0.00 0.00 60 1010.8
20260504224548 22 244 0.0 8.0 0.00 0.00 0.00 59 1010.8
20260504224048 22 188 1.6 8.0 0.00 0.00 0.00 59 1010.7
20260504223551 22 165 3.2 12.9 0.00 0.00 0.00 58 1010.9
20260504223059 22 250 4.8 12.9 0.00 0.00 0.00 56 1010.9
20260504222550 22 237 1.6 11.3 0.00 0.00 0.00 59 1011.0
20260504222044 23 223 1.6 11.3 0.00 0.00 0.00 58 1011.0
20260504221556 22 181 6.4 12.9 0.00 0.00 0.00 61 1011.1
20260504221043 22 225 0.0 9.7 0.00 0.00 0.00 60 1011.0
20260504220540 22 167 3.2 11.3 0.00 0.00 0.00 60 1011.2
20260504220040 22 245 3.2 11.3 0.00 0.00 0.00 61 1011.2
20260504215540 22 181 3.2 14.5 0.00 0.00 0.00 61 1011.4
20260504215038 22 153 4.8 14.5 0.00 0.00 0.00 62 1011.4
20260504214539 22 152 4.8 12.9 0.00 0.00 0.00 61 1011.5
20260504214037 21 148 4.8 12.9 0.00 0.00 0.00 64 1011.5
20260504213536 21 141 1.6 11.3 0.00 0.00 0.00 62 1011.6
20260504213047 21 216 3.2 11.3 0.00 0.00 0.00 61 1011.7
20260504212533 21 263 1.6 8.0 0.00 0.00 0.00 62 1011.8
20260504212033 21 194 3.2 12.9 0.00 0.00 0.00 63 1011.9
20260504211537 21 167 1.6 14.5 0.00 0.00 0.00 65 1011.9
20260504211033 21 186 1.6 14.5 0.00 0.00 0.00 63 1012.0
20260504210531 20 189 3.2 11.3 0.00 0.00 0.00 64 1011.9
20260504210032 20 163 4.8 11.3 0.00 0.00 0.00 66 1012.1
20260504205531 20 163 4.8 11.3 0.00 0.00 0.00 63 1012.2
20260504205031 20 201 4.8 12.9 0.00 0.00 0.00 64 1012.3
20260504204530 20 187 0.0 14.5 0.00 0.00 0.00 66 1012.3
20260504204028 20 200 3.2 12.9 0.00 0.00 0.00 66 1012.4
20260504203529 20 192 3.2 16.1 0.00 0.00 0.00 67 1012.4
20260504203037 20 189 6.4 9.7 0.00 0.00 0.00 66 1012.5
20260504202525 20 271 3.2 11.3 0.00 0.00 0.00 66 1012.6
20260504202024 19 252 3.2 12.9 0.00 0.00 0.00 68 1012.6
20260504201526 19 187 3.2 12.9 0.00 0.00 0.00 68 1012.6
20260504201022 19 186 1.6 11.3 0.00 0.00 0.00 68 1012.6
20260504200525 18 175 4.8 9.7 0.00 0.00 0.00 68 1012.8
20260504200021 18 219 3.2 8.0 0.00 0.00 0.00 69 1012.8
20260504195519 18 249 1.6 9.7 0.00 0.00 0.00 69 1012.7
20260504195020 18 190 3.2 12.9 0.00 0.00 0.00 69 1012.8
20260504194528 18 181 3.2 12.9 0.00 0.00 0.00 70 1012.9
20260504194020 18 277 4.8 12.9 0.00 0.00 0.00 70 1013.0
20260504193522 18 187 4.8 14.5 0.00 0.00 0.00 69 1013.0
20260504193021 18 159 3.2 12.9 0.00 0.00 0.00 69 1013.0
20260504192519 18 323 1.6 12.9 0.00 0.00 0.00 69 1012.9
20260504192018 18 169 0.0 8.0 0.00 0.00 0.00 70 1013.0
20260504191530 18 253 3.2 12.9 0.00 0.00 0.00 71 1013.0
20260504191016 18 146 3.2 14.5 0.00 0.00 0.00 70 1013.1
20260504190515 17 196 4.8 14.5 0.00 0.00 0.00 72 1013.2
20260504190014 17 183 3.2 8.0 0.00 0.00 0.00 70 1013.1
20260504185513 17 181 1.6 14.5 0.00 0.00 0.00 74 1013.3
20260504185013 17 167 6.4 16.1 0.00 0.00 0.00 73 1013.3
20260504184517 17 153 8.0 16.1 0.00 0.00 0.00 72 1013.2
20260504184013 17 195 3.2 12.9 0.00 0.00 0.00 72 1013.4
20260504183513 17 183 3.2 12.9 0.00 0.00 0.00 73 1013.5
20260504183012 17 206 1.6 12.9 0.00 0.00 0.00 73 1013.3
20260504182514 16 177 4.8 12.9 0.00 0.00 0.00 73 1013.4
20260504182013 16 171 6.4 14.5 0.00 0.00 0.00 74 1013.3
20260504181517 16 258 3.2 6.4 0.00 0.00 0.00 75 1013.3
20260504181011 16 208 1.6 4.8 0.00 0.00 0.00 75 1013.2
20260504180511 16 242 0.0 6.4 0.00 0.00 0.00 76 1013.4
20260504180016 16 206 1.6 6.4 0.00 0.00 0.00 75 1013.3
20260504175510 15 223 1.6 8.0 0.00 0.00 0.00 76 1013.3
20260504175010 15 199 1.6 8.0 0.00 0.00 0.00 75 1013.3
20260504174510 15 234 1.6 8.0 0.00 0.00 0.00 77 1013.4
20260504174010 15 250 3.2 8.0 0.00 0.00 0.00 76 1013.4
20260504173510 15 184 1.6 8.0 0.00 0.00 0.00 77 1013.4
20260504173011 15 184 3.2 8.0 0.00 0.00 0.00 76 1013.3
20260504172510 15 241 0.0 9.7 0.00 0.00 0.00 77 1013.2
20260504172009 15 186 4.8 9.7 0.00 0.00 0.00 76 1013.3
20260504171510 15 279 1.6 8.0 0.00 0.00 0.00 77 1013.2
20260504171010 15 166 1.6 11.3 0.00 0.00 0.00 78 1013.1
20260504170509 15 165 6.4 11.3 0.00 0.00 0.00 78 1013.5
20260504151001 14 147 8.0 14.5 0.00 0.00 0.00 80 1012.9
20260504150501 14 150 4.8 14.5 0.00 0.00 0.00 81 1012.9
20260504150112 13 143 3.2 14.5 0.00 0.00 0.00 80 1012.9
20260504141056 13 157 0.0 4.8 0.00 0.00 0.00 83 1012.3
20260504140555 13 157 1.6 8.0 0.00 0.00 0.00 83 1012.2
20260504130546 13 167 0.0 8.0 0.00 0.00 0.00 81 1011.1